GW7411 Weather Reports


Display with metric or nautical units.
time (UTC)temp
F
wind
direction
speed
MPH
gust
MPH
rain 1hr
in
rain 24hr
in
rain mn
in
humidity
%
barometer
mb
20260906224821 72 173 21.0 26.0 0.00 0.00 0.00 18 29.5
20260906224320 73 174 21.0 31.0 0.00 0.00 0.00 17 29.5
20260906223820 74 174 21.0 29.0 0.00 0.00 0.00 16 29.5
20260906223320 72 178 24.0 32.0 0.00 0.00 0.00 18 29.5
20260906222821 72 180 22.0 32.0 0.00 0.00 0.00 17 29.5
20260906221820 73 180 21.0 27.0 0.00 0.00 0.00 18 29.5
20260906221321 74 180 20.0 28.0 0.00 0.00 0.00 17 29.5
20260906220821 74 176 18.0 25.0 0.00 0.00 0.00 18 29.5
20260906220321 73 180 18.0 27.0 0.00 0.00 0.00 17 29.5
20260906215820 74 181 19.0 26.0 0.00 0.00 0.00 17 29.5
20260906215320 73 182 20.0 26.0 0.00 0.00 0.00 17 29.5
20260906214820 74 195 23.0 28.0 0.00 0.00 0.00 17 29.5
20260906214320 74 186 21.0 28.0 0.00 0.00 0.00 17 29.5
20260906213820 74 191 17.0 26.0 0.00 0.00 0.00 16 29.5
20260906213320 74 182 20.0 25.0 0.00 0.00 0.00 16 29.5
20260906212821 74 179 20.0 33.0 0.00 0.00 0.00 15 29.5
20260906212320 74 179 23.0 31.0 0.00 0.00 0.00 15 29.5
20260906211820 74 185 26.0 37.0 0.00 0.00 0.00 15 29.5
20260906211322 76 180 25.0 35.0 0.00 0.00 0.00 14 29.5
20260906210821 75 190 26.0 36.0 0.00 0.00 0.00 14 29.5
20260906210321 75 188 26.0 38.0 0.00 0.00 0.00 15 29.5
20260906205821 75 184 28.0 39.0 0.00 0.00 0.00 14 29.5
20260906205321 75 190 26.0 35.0 0.00 0.00 0.00 15 29.5
20260906204820 75 189 27.0 37.0 0.00 0.00 0.00 14 29.5
20260906204322 76 186 27.0 35.0 0.00 0.00 0.00 14 29.5
20260906203321 77 186 27.0 35.0 0.00 0.00 0.00 13 29.4
20260906202821 76 200 25.0 30.0 0.00 0.00 0.00 14 29.5
20260906202320 75 197 26.0 33.0 0.00 0.00 0.00 14 29.5
20260906201820 74 196 30.0 36.0 0.00 0.00 0.00 13 29.5
20260906200821 75 193 28.0 36.0 0.00 0.00 0.00 13 29.5
20260906200320 75 190 26.0 33.0 0.00 0.00 0.00 13 29.5
20260906195821 76 189 28.0 34.0 0.00 0.00 0.00 14 29.5
20260906195320 74 200 23.0 33.0 0.00 0.00 0.00 13 29.5
20260906194821 75 190 25.0 34.0 0.00 0.00 0.00 14 29.5
20260906194321 75 202 23.0 33.0 0.00 0.00 0.00 14 29.5
20260906193821 75 180 25.0 36.0 0.00 0.00 0.00 14 29.5
20260906192821 75 187 25.0 36.0 0.00 0.00 0.00 14 29.5
20260906192321 73 191 23.0 30.0 0.00 0.00 0.00 15 29.5
20260906191821 74 192 26.0 34.0 0.00 0.00 0.00 15 29.5
20260906191320 73 187 24.0 31.0 0.00 0.00 0.00 15 29.5
20260906190820 73 191 27.0 34.0 0.00 0.00 0.00 13 29.5
20260906190321 73 193 23.0 29.0 0.00 0.00 0.00 15 29.5
20260906185320 73 181 23.0 32.0 0.00 0.00 0.00 14 29.5
20260906184821 73 192 22.0 35.0 0.00 0.00 0.00 15 29.5
20260906184321 73 179 18.0 31.0 0.00 0.00 0.00 18 29.6
20260906183820 72 181 20.0 31.0 0.00 0.00 0.00 16 29.6
20260906183320 72 179 13.0 24.0 0.00 0.00 0.00 19 29.6
20260906182320 73 186 11.0 18.0 0.00 0.00 0.00 20 29.6
20260906181321 70 200 10.0 14.0 0.00 0.00 0.00 24 29.6
20260906180821 70 185 9.0 13.0 0.00 0.00 0.00 24 29.6
20260906180320 71 181 9.0 14.0 0.00 0.00 0.00 22 29.6
20260906175844 71 180 11.0 16.0 0.00 0.00 0.00 20 29.6
20260906175321 69 177 11.0 16.0 0.00 0.00 0.00 21 29.6
20260906174820 69 180 10.0 13.0 0.00 0.00 0.00 28 29.6
20260906174320 68 179 10.0 15.0 0.00 0.00 0.00 23 29.6
20260906173821 69 176 10.0 12.0 0.00 0.00 0.00 21 29.6
20260906173322 69 177 9.0 12.0 0.00 0.00 0.00 22 29.6
20260906172821 69 175 10.0 12.0 0.00 0.00 0.00 22 29.6
20260906172321 68 170 9.0 12.0 0.00 0.00 0.00 22 29.6
20260906171821 67 181 9.0 12.0 0.00 0.00 0.00 26 29.7
20260906171320 68 173 11.0 13.0 0.00 0.00 0.00 21 29.6
20260906170821 67 163 8.0 12.0 0.00 0.00 0.00 22 29.7
20260906170320 67 150 11.0 15.0 0.00 0.00 0.00 21 29.7
20260906165821 65 162 6.0 11.0 0.00 0.00 0.00 30 29.7
20260906165320 67 142 8.0 13.0 0.00 0.00 0.00 28 29.7
20260906164820 65 142 7.0 9.0 0.00 0.00 0.00 25 29.7
20260906164320 63 141 6.0 9.0 0.00 0.00 0.00 27 29.7
20260906163821 62 164 7.0 10.0 0.00 0.00 0.00 30 29.7
20260906163323 64 144 7.0 9.0 0.00 0.00 0.00 28 29.7
20260906162821 62 163 6.0 8.0 0.00 0.00 0.00 31 29.8
20260906161820 62 147 7.0 9.0 0.00 0.00 0.00 29 29.8
20260906161320 62 149 7.0 9.0 0.00 0.00 0.00 28 29.7
20260906160820 61 152 7.0 8.0 0.00 0.00 0.00 30 29.8
20260906160320 60 161 6.0 8.0 0.00 0.00 0.00 30 29.8
20260906155820 61 144 6.0 8.0 0.00 0.00 0.00 29 29.8
20260906155320 60 167 6.0 8.0 0.00 0.00 0.00 30 29.8
20260906154824 61 138 6.0 9.0 0.00 0.00 0.00 30 29.8
20260906154320 59 141 7.0 10.0 0.00 0.00 0.00 31 29.8
20260906153821 59 139 9.0 10.0 0.00 0.00 0.00 30 29.8
20260906153321 58 137 9.0 10.0 0.00 0.00 0.00 31 29.8
20260906152820 58 140 8.0 9.0 0.00 0.00 0.00 30 29.8
20260906152321 58 141 7.0 10.0 0.00 0.00 0.00 31 29.8
20260906151821 57 142 7.0 10.0 0.00 0.00 0.00 31 29.8
20260906151320 57 136 8.0 10.0 0.00 0.00 0.00 32 29.8
20260906150822 56 138 8.0 10.0 0.00 0.00 0.00 32 29.8
20260906150321 57 146 6.0 8.0 0.00 0.00 0.00 32 29.8
20260906145820 58 150 5.0 7.0 0.00 0.00 0.00 31 29.8
20260906145320 57 136 5.0 7.0 0.00 0.00 0.00 32 29.8
20260906144821 57 141 5.0 6.0 0.00 0.00 0.00 31 29.8
20260906144320 57 136 5.0 6.0 0.00 0.00 0.00 31 29.8
20260906143821 57 129 4.0 6.0 0.00 0.00 0.00 34 29.8
20260906143320 55 118 3.0 5.0 0.00 0.00 0.00 33 29.8
20260906142820 56 143 3.0 4.0 0.00 0.00 0.00 33 29.8
20260906142320 56 145 3.0 4.0 0.00 0.00 0.00 33 29.8
20260906141820 57 173 2.0 4.0 0.00 0.00 0.00 31 29.8
20260906141321 56 156 3.0 4.0 0.00 0.00 0.00 32 29.8
20260906140820 54 225 2.0 6.0 0.00 0.00 0.00 35 29.9
20260906140321 57 156 2.0 3.0 0.00 0.00 0.00 31 29.8
20260906135829 55 157 2.0 4.0 0.00 0.00 0.00 33 29.8
20260906135321 53 155 4.0 6.0 0.00 0.00 0.00 36 29.9
20260906134822 53 187 3.0 5.0 0.00 0.00 0.00 34 29.9
20260906134321 52 135 2.0 4.0 0.00 0.00 0.00 36 29.9
20260906133821 52 110 2.0 4.0 0.00 0.00 0.00 36 29.9
20260906133321 52 45 1.0 2.0 0.00 0.00 0.00 35 29.9
20260906132820 51 332 1.0 3.0 0.00 0.00 0.00 36 29.9
20260906132321 51 352 3.0 4.0 0.00 0.00 0.00 36 29.9
20260906131820 51 345 2.0 4.0 0.00 0.00 0.00 35 29.9
20260906131320 51 2 2.0 6.0 0.00 0.00 0.00 36 29.9
20260906130821 50 345 3.0 4.0 0.00 0.00 0.00 37 29.9
20260906130322 51 352 2.0 4.0 0.00 0.00 0.00 36 29.9
20260906125820 50 336 2.0 4.0 0.00 0.00 0.00 37 29.9
20260906125321 51 347 2.0 3.0 0.00 0.00 0.00 36 29.9
20260906124820 51 326 2.0 3.0 0.00 0.00 0.00 36 29.9
20260906124320 51 327 1.0 3.0 0.00 0.00 0.00 36 29.9
20260906123820 50 7 2.0 3.0 0.00 0.00 0.00 36 29.9
20260906123321 50 351 2.0 4.0 0.00 0.00 0.00 36 29.9
20260906122820 51 248 1.0 3.0 0.00 0.00 0.00 36 29.9
20260906122321 51 187 2.0 4.0 0.00 0.00 0.00 36 29.9
20260906121821 52 191 2.0 5.0 0.00 0.00 0.00 35 29.9
20260906121321 53 135 3.0 4.0 0.00 0.00 0.00 33 29.9
20260906120820 52 138 3.0 4.0 0.00 0.00 0.00 34 29.9
20260906120320 51 177 4.0 6.0 0.00 0.00 0.00 36 29.9
20260906115820 52 149 4.0 6.0 0.00 0.00 0.00 35 29.9
20260906115321 51 151 4.0 6.0 0.00 0.00 0.00 35 29.9
20260906114820 51 180 4.0 5.0 0.00 0.00 0.00 37 29.9
20260906114321 51 156 5.0 7.0 0.00 0.00 0.00 36 29.9
20260906113821 51 166 4.0 7.0 0.00 0.00 0.00 36 29.9
20260906113321 51 179 5.0 6.0 0.00 0.00 0.00 36 29.9
20260906112820 52 156 5.0 7.0 0.00 0.00 0.00 35 29.9
20260906112320 51 178 5.0 7.0 0.00 0.00 0.00 36 29.9
20260906111820 52 144 6.0 8.0 0.00 0.00 0.00 35 29.9
20260906111406 51 171 5.0 8.0 0.00 0.00 0.00 35 29.9
20260906110821 51 175 6.0 7.0 0.00 0.00 0.00 36 29.9
20260906110321 52 174 6.0 8.0 0.00 0.00 0.00 35 29.9
20260906105821 52 158 7.0 8.0 0.00 0.00 0.00 35 29.9
20260906105320 52 173 6.0 8.0 0.00 0.00 0.00 35 29.9
20260906104820 52 180 6.0 8.0 0.00 0.00 0.00 35 29.9
20260906104321 52 171 6.0 7.0 0.00 0.00 0.00 35 29.9
20260906103821 52 164 6.0 8.0 0.00 0.00 0.00 34 29.9
20260906103321 53 142 5.0 7.0 0.00 0.00 0.00 33 29.9
20260906102820 52 177 4.0 7.0 0.00 0.00 0.00 34 29.9
20260906102321 52 178 4.0 7.0 0.00 0.00 0.00 34 29.9
20260906101821 52 179 5.0 8.0 0.00 0.00 0.00 34 29.9
20260906101320 52 178 6.0 8.0 0.00 0.00 0.00 34 29.9
20260906100824 53 158 5.0 8.0 0.00 0.00 0.00 32 29.9
20260906100320 54 180 3.0 5.0 0.00 0.00 0.00 31 29.8
20260906095821 53 180 4.0 6.0 0.00 0.00 0.00 33 29.9
20260906095321 54 150 3.0 5.0 0.00 0.00 0.00 30 29.8
20260906094321 52 156 4.0 6.0 0.00 0.00 0.00 33 29.9
20260906093821 52 183 3.0 6.0 0.00 0.00 0.00 34 29.9
20260906093321 53 78 2.0 3.0 0.00 0.00 0.00 32 29.8
20260906092820 54 211 1.0 3.0 0.00 0.00 0.00 31 29.8
20260906092321 55 16 2.0 4.0 0.00 0.00 0.00 29 29.8
20260906091824 55 294 2.0 4.0 0.00 0.00 0.00 30 29.8
20260906091321 55 3 4.0 5.0 0.00 0.00 0.00 29 29.8
20260906090821 55 358 2.0 4.0 0.00 0.00 0.00 30 29.8
20260906090321 55 3.0 5.0 0.00 0.00 0.00 30 29.8
20260906085821 55 3.0 4.0 0.00 0.00 0.00 30 29.8
20260906085320 55 4.0 5.0 0.00 0.00 0.00 30 29.8
20260906084820 55 284 1.0 3.0 0.00 0.00 0.00 29 29.8
20260906084320 55 4.0 6.0 0.00 0.00 0.00 29 29.8
20260906083820 55 4.0 5.0 0.00 0.00 0.00 30 29.8
20260906083321 55 4.0 6.0 0.00 0.00 0.00 30 29.8
20260906082821 55 1 5.0 6.0 0.00 0.00 0.00 30 29.8
20260906082321 55 359 4.0 6.0 0.00 0.00 0.00 30 29.8
20260906081820 54 328 4.0 6.0 0.00 0.00 0.00 31 29.8
20260906081321 54 357 4.0 6.0 0.00 0.00 0.00 32 29.8
20260906080821 54 354 5.0 6.0 0.00 0.00 0.00 31 29.8
20260906080320 54 349 4.0 6.0 0.00 0.00 0.00 31 29.8
20260906075820 55 321 3.0 4.0 0.00 0.00 0.00 30 29.8
20260906075322 55 344 3.0 5.0 0.00 0.00 0.00 29 29.8
20260906074821 56 344 3.0 4.0 0.00 0.00 0.00 29 29.8
20260906074320 56 320 3.0 5.0 0.00 0.00 0.00 28 29.8
20260906073820 57 295 2.0 4.0 0.00 0.00 0.00 27 29.8
20260906073320 57 270 1.0 3.0 0.00 0.00 0.00 28 29.8
20260906072820 57 1.0 2.0 0.00 0.00 0.00 28 29.8
20260906072321 57 2.0 3.0 0.00 0.00 0.00 27 29.8
20260906071821 57 4 2.0 4.0 0.00 0.00 0.00 27 29.8
20260906071320 57 2 2.0 4.0 0.00 0.00 0.00 27 29.8
20260906070820 58 21 3.0 5.0 0.00 0.00 0.00 26 29.8
20260906070321 58 10 2.0 4.0 0.00 0.00 0.00 25 29.8
20260906065820 58 263 1.0 3.0 0.00 0.00 0.00 26 29.8
20260906065321 58 222 2.0 4.0 0.00 0.00 0.00 26 29.8
20260906064820 58 225 3.0 5.0 0.00 0.00 0.00 26 29.8
20260906064320 58 235 3.0 5.0 0.00 0.00 0.00 26 29.8
20260906063820 59 264 2.0 3.0 0.00 0.00 0.00 25 29.8
20260906063320 59 225 0.0 3.0 0.00 0.00 0.00 24 29.8
20260906062821 60 212 2.0 3.0 0.00 0.00 0.00 24 29.8
20260906062321 60 305 1.0 2.0 0.00 0.00 0.00 23 29.8
20260906061820 60 213 2.0 4.0 0.00 0.00 0.00 23 29.8
20260906061321 61 177 3.0 4.0 0.00 0.00 0.00 22 29.8
20260906060821 61 178 4.0 6.0 0.00 0.00 0.00 22 29.7
20260906060320 61 178 5.0 6.0 0.00 0.00 0.00 22 29.7
20260906055820 62 179 4.0 5.0 0.00 0.00 0.00 22 29.7
20260906055321 62 180 4.0 5.0 0.00 0.00 0.00 22 29.7
20260906054820 62 187 4.0 6.0 0.00 0.00 0.00 21 29.7
20260906054320 63 157 6.0 8.0 0.00 0.00 0.00 21 29.7
20260906053822 63 143 6.0 8.0 0.00 0.00 0.00 21 29.7
20260906053320 63 149 6.0 8.0 0.00 0.00 0.00 21 29.7
20260906052821 63 171 7.0 8.0 0.00 0.00 0.00 21 29.7
20260906052322 63 179 9.0 11.0 0.00 0.00 0.00 21 29.7
20260906051821 63 178 8.0 10.0 0.00 0.00 0.00 21 29.7
20260906051320 63 179 8.0 9.0 0.00 0.00 0.00 21 29.7
20260906050821 63 179 9.0 10.0 0.00 0.00 0.00 21 29.7
20260906050321 63 163 8.0 13.0 0.00 0.00 0.00 20 29.7
20260906045821 63 178 8.0 10.0 0.00 0.00 0.00 20 29.7
20260906045320 63 170 7.0 10.0 0.00 0.00 0.00 21 29.7
20260906044820 63 174 7.0 8.0 0.00 0.00 0.00 21 29.7
20260906044321 63 180 7.0 8.0 0.00 0.00 0.00 20 29.7
20260906043820 63 175 9.0 12.0 0.00 0.00 0.00 20 29.7
20260906043320 63 164 9.0 11.0 0.00 0.00 0.00 20 29.7
20260906042820 63 137 10.0 11.0 0.00 0.00 0.00 20 29.7
20260906042321 64 155 10.0 12.0 0.00 0.00 0.00 20 29.7
20260906041821 64 179 8.0 11.0 0.00 0.00 0.00 20 29.7
20260906041320 64 179 11.0 14.0 0.00 0.00 0.00 20 29.7
20260906040821 64 179 12.0 14.0 0.00 0.00 0.00 20 29.7
20260906035820 64 180 8.0 12.0 0.00 0.00 0.00 20 29.7
20260906035321 64 179 9.0 13.0 0.00 0.00 0.00 20 29.7
20260906034820 64 169 9.0 12.0 0.00 0.00 0.00 20 29.7
20260906034321 64 187 8.0 14.0 0.00 0.00 0.00 20 29.7
20260906033820 64 180 9.0 13.0 0.00 0.00 0.00 20 29.7
20260906033320 64 165 9.0 12.0 0.00 0.00 0.00 20 29.7
20260906032820 64 151 8.0 12.0 0.00 0.00 0.00 20 29.7
20260906032321 64 199 6.0 13.0 0.00 0.00 0.00 19 29.7
20260906031821 64 167 10.0 15.0 0.00 0.00 0.00 20 29.7
20260906031321 64 135 6.0 13.0 0.00 0.00 0.00 19 29.7
20260906030820 65 172 6.0 13.0 0.00 0.00 0.00 19 29.7
20260906030320 65 201 12.0 17.0 0.00 0.00 0.00 19 29.7
20260906025821 64 183 11.0 19.0 0.00 0.00 0.00 19 29.7
20260906025320 65 188 10.0 19.0 0.00 0.00 0.00 19 29.7
20260906024821 65 204 12.0 20.0 0.00 0.00 0.00 19 29.7
20260906024320 65 204 10.0 21.0 0.00 0.00 0.00 19 29.7
20260906023821 64 193 10.0 14.0 0.00 0.00 0.00 20 29.7
20260906023320 65 183 10.0 22.0 0.00 0.00 0.00 19 29.7
20260906022820 65 214 10.0 14.0 0.00 0.00 0.00 19 29.7
20260906022320 66 211 11.0 21.0 0.00 0.00 0.00 18 29.7
20260906021820 65 250 9.0 17.0 0.00 0.00 0.00 19 29.7
20260906021321 66 248 11.0 20.0 0.00 0.00 0.00 19 29.7
20260906020821 66 233 13.0 19.0 0.00 0.00 0.00 18 29.6
20260906020320 66 243 12.0 18.0 0.00 0.00 0.00 18 29.6
20260906015820 66 252 12.0 17.0 0.00 0.00 0.00 19 29.6
20260906015320 67 236 10.0 15.0 0.00 0.00 0.00 18 29.6
20260906014821 67 225 9.0 14.0 0.00 0.00 0.00 18 29.6
20260906014320 67 216 9.0 19.0 0.00 0.00 0.00 18 29.6
20260906013357 69 245 11.0 16.0 0.00 0.00 0.00 17 29.6
20260906012820 70 249 11.0 16.0 0.00 0.00 0.00 18 29.6
20260906012321 70 231 11.0 16.0 0.00 0.00 0.00 17 29.6
20260906011821 71 235 10.0 14.0 0.00 0.00 0.00 17 29.6
20260906011320 72 234 10.0 14.0 0.00 0.00 0.00 17 29.6
20260906010821 72 228 12.0 16.0 0.00 0.00 0.00 16 29.6
20260906010322 73 234 10.0 13.0 0.00 0.00 0.00 17 29.6
20260906005821 74 238 10.0 13.0 0.00 0.00 0.00 17 29.6
20260906005322 75 194 14.0 19.0 0.00 0.00 0.00 15 29.5
20260906004820 75 205 15.0 19.0 0.00 0.00 0.00 14 29.5
20260906004320 75 197 14.0 19.0 0.00 0.00 0.00 14 29.5
20260906003820 75 200 15.0 19.0 0.00 0.00 0.00 14 29.5
20260906003320 76 181 17.0 21.0 0.00 0.00 0.00 13 29.5
20260906002820 75 198 17.0 22.0 0.00 0.00 0.00 14 29.5
20260906002321 75 208 17.0 20.0 0.00 0.00 0.00 14 29.5
20260906001821 76 206 19.0 23.0 0.00 0.00 0.00 13 29.5
20260906001321 76 186 18.0 22.0 0.00 0.00 0.00 13 29.5
20260906000821 77 181 19.0 25.0 0.00 0.00 0.00 13 29.5
20260906000320 76 187 23.0 32.0 0.00 0.00 0.00 13 29.5
20260905235820 77 201 18.0 25.0 0.00 0.00 0.00 13 29.5
20260905235321 75 202 17.0 22.0 0.00 0.00 0.00 13 29.5
20260905234821 75 209 16.0 20.0 0.00 0.00 0.00 14 29.5
20260905234321 76 209 21.0 27.0 0.00 0.00 0.00 13 29.5
20260905233820 77 189 20.0 26.0 0.00 0.00 0.00 13 29.5
20260905233321 77 199 21.0 28.0 0.00 0.00 0.00 13 29.5
20260905232820 77 190 23.0 29.0 0.00 0.00 0.00 13 29.5
20260905232321 77 181 24.0 34.0 0.00 0.00 0.00 12 29.5
20260905231820 77 184 25.0 34.0 0.00 0.00 0.00 12 29.5
20260905231320 78 178 24.0 34.0 0.00 0.00 0.00 12 29.5
20260905230821 77 173 18.0 25.0 0.00 0.00 0.00 12 29.5
20260905230321 76 169 22.0 30.0 0.00 0.00 0.00 12 29.5
20260905225820 77 172 21.0 29.0 0.00 0.00 0.00 12 29.5
20260905225320 78 198 18.0 24.0 0.00 0.00 0.00 13 29.5